Dewpoint
67 67 67 67 67 67 67 67 67 68 68 68 68 68 68 68 68 67 68 68 67 67 67 67 67 67 67 66 66 67 67 67 67 68 68 67 67 67 67 67 67 67 66 66 66 66 66 66 66 66 66 65 65 65 65 65 65 66 66 66 65 64 64 65 66 65 63 63 63 63 63 64 64 64 64 65 64 64 65 64 64 62 63 63 63
67 67 67 67 67 67 67 67 67 66 67 67 67 68 68 68 68 68 68 68 68 68 68 67 67 66 66 66 66 66 67 66 66 67 68 68 67 67 67 67 67 66 67 66 66 66 66 66 66 66 67 66 66 66 66 65 65 65 65 65 65 65 64 64 64 63 61 60 60 60 62 63 63 64 63 64 65 64 64 64 63 63 63 63 63
66 66 67 67 67 67 67 67 67 67 67 67 68 68 68 68 68 68 68 68 68 68 68 67 68 68 67 67 67 66 68 68 68 68 68 68 68 68 68 68 67 66 66 66 66 66 66 66 66 67 66 66 66 65 66 65 65 65 65 65 65 64 64 65 64 64 61 62 61 59 58 58 61 62 63 64 64 64 64 63 63 63 63 63 63
65 65 66 66 67 66 67 67 67 67 67 67 68 67 67 68 68 68 68 68 68 68 68 68 68 68 68 68 68 68 67 68 68 68 68 68 68 67 67 68 67 67 66 66 66 66 66 66 66 67 67 67 66 66 65 65 65 66 66 65 65 63 63 63 64 64 63 61 57 57 57 57 55 58 59 61 64 64 64 63 63 63 63 63 64
65 65 65 66 66 66 66 67 67 67 67 67 67 67 68 68 68 68 68 67 68 68 68 68 68 68 67 67 67 67 67 66 66 66 67 67 68 68 68 67 67 67 67 66 66 66 67 67 66 67 67 67 66 66 66 65 65 65 65 65 64 63 62 64 63 64 63 63 60 58 58 56 56 57 59 60 64 63 63 63 63 64 64 64 63
64 65 65 66 66 66 66 66 67 67 67 68 68 68 68 68 68 68 67 67 67 68 68 68 68 67 66 66 65 64 64 64 64 64 64 66 66 68 68 67 67 67 67 66 66 66 66 66 66 65 66 66 65 66 65 66 65 65 66 66 65 66 65 62 63 64 64 63 63 62 62 59 58 60 59 56 63 62 62 63 63 64 64 64 64
65 65 65 65 65 65 63 62 65 67 68 68 68 68 68 68 68 67 67 67 68 68 68 68 68 67 67 66 65 64 64 65 66 66 67 67 67 67 66 67 66 66 66 66 66 65 65 65 65 65 64 65 65 65 64 64 64 64 65 66 65 66 65 63 63 63 64 63 63 63 63 64 63 60 57 58 57 61 62 63 63 64 64 64 64
64 65 65 64 61 60 60 62 66 67 67 68 68 68 67 67 67 67 67 67 67 68 68 68 67 67 67 66 66 65 64 65 66 67 67 66 66 66 66 66 66 65 66 65 65 65 65 65 64 65 64 65 65 65 65 65 64 64 65 66 66 66 65 63 63 63 62 62 63 62 63 63 63 62 62 59 58 57 60 62 63 63 64 64 64
64 64 62 58 59 61 61 63 66 66 67 67 67 67 67 67 67 67 67 67 68 68 68 68 67 67 67 66 65 65 66 66 66 66 65 66 65 65 66 66 66 66 65 65 65 65 65 65 65 65 65 64 64 65 65 64 64 64 64 64 64 65 64 65 64 63 63 62 63 61 62 62 62 62 61 61 59 57 58 59 59 63 63 64 63
63 64 59 59 61 62 63 64 63 64 66 67 67 67 67 66 66 67 67 67 67 67 67 66 66 65 65 65 66 65 66 65 65 65 65 65 66 66 66 65 65 66 66 65 65 64 65 65 65 65 65 64 64 64 63 63 63 63 63 64 64 63 64 65 64 64 64 64 64 62 61 61 61 61 60 61 60 60 58 58 59 59 59 63 63
62 58 59 60 60 61 62 61 61 62 63 65 65 65 65 65 65 65 66 66 66 66 66 66 66 66 66 66 66 65 65 65 64 64 64 65 64 64 64 64 65 65 65 65 65 64 64 64 65 64 64 64 64 64 63 64 63 63 62 62 62 62 62 63 64 63 63 63 63 63 63 61 60 59 60 60 60 59 59 57 59 60 60 61 63
57 57 61 59 59 60 61 60 60 60 61 64 65 65 65 65 65 65 65 66 67 67 67 66 67 66 67 67 66 65 65 64 64 64 64 64 64 63 63 63 64 64 64 64 64 64 64 64 64 64 63 64 64 64 63 63 62 63 63 63 63 63 63 63 63 63 63 63 63 63 62 63 63 62 61 61 60 59 59 58 59 61 60 61 63
56 58 58 58 58 59 60 59 59 60 61 63 65 65 65 65 66 65 64 64 64 65 65 66 66 65 65 65 65 65 65 65 64 64 64 63 62 62 62 61 61 61 62 62 63 63 63 63 63 63 63 63 63 63 63 63 63 63 62 62 62 61 62 63 63 63 63 62 62 63 64 62 61 62 61 61 62 61 60 59 60 61 59 60 61
57 57 57 57 58 59 59 59 60 59 59 60 61 63 64 64 64 64 63 63 63 64 64 64 64 65 65 65 65 64 63 63 63 63 63 62 62 62 61 61 61 61 62 62 62 62 62 62 63 63 62 62 62 62 62 62 63 62 62 62 61 62 63 64 63 62 64 62 63 63 63 62 62 62 63 62 62 61 60 60 59 60 60 59 62
58 57 57 58 58 59 58 59 60 59 59 59 60 61 61 62 63 62 62 63 62 62 63 63 63 63 63 63 63 63 63 62 62 62 62 61 61 61 61 61 61 61 61 61 61 61 61 62 62 62 61 61 61 62 61 62 62 62 62 62 62 63 62 64 64 63 61 62 62 62 63 63 63 63 64 63 62 62 61 60 60 58 58 59 58
58 57 58 59 60 59 59 60 59 60 60 60 60 60 60 61 62 61 62 62 61 61 61 61 61 62 62 62 62 62 62 62 61 61 61 61 61 61 61 61 61 61 61 61 60 61 62 62 62 62 61 61 61 61 61 62 62 62 63 62 62 62 62 62 63 63 63 63 62 63 63 63 62 63 63 63 62 62 62 62 61 60 57 55 58
58 58 59 60 59 60 60 60 60 60 60 60 60 60 60 61 61 61 61 61 61 60 60 61 61 61 62 62 62 62 61 61 61 61 61 61 61 60 60 60 61 62 61 61 60 60 61 61 61 61 61 61 61 61 61 62 62 62 62 62 62 63 63 61 63 63 63 64 64 63 64 62 62 63 64 63 61 62 63 63 62 60 59 56 56
59 58 57 58 59 59 60 59 60 60 60 60 60 60 61 61 61 61 61 59 59 59 60 60 61 61 61 61 60 60 60 60 60 60 60 60 60 60 60 59 60 60 60 60 60 60 60 60 60 60 61 61 61 61 61 61 62 62 62 62 62 63 62 62 62 63 64 64 64 64 63 63 63 64 64 64 64 63 63 63 63 62 61 58 57
58 57 57 58 59 59 59 59 59 60 60 60 60 60 60 60 61 61 60 59 59 59 59 59 60 60 60 59 59 59 59 59 59 59 60 59 58 58 58 59 59 59 60 59 58 57 58 59 59 59 59 60 60 61 62 62 62 63 63 63 62 63 62 62 62 62 63 64 63 63 64 64 64 63 63 64 64 63 63 63 62 62 61 60 59
57 57 58 58 58 59 59 59 59 59 59 59 59 59 59 60 60 59 58 58 58 59 59 59 60 59 59 58 58 57 57 57 58 58 57 57 57 57 57 57 58 59 57 57 57 57 56 57 57 57 58 58 58 59 60 61 62 62 62 63 63 63 62 61 61 62 63 63 62 61 61 62 63 63 62 63 63 63 63 63 62 61 61 61 60
57 57 57 58 58 59 59 59 59 59 59 59 59 59 58 58 57 57 57 57 58 59 59 59 59 58 58 58 57 57 57 57 56 56 56 56 56 57 56 57 57 57 56 56 56 55 55 55 55 56 56 56 57 57 58 60 62 62 62 62 62 62 62 62 62 62 62 62 62 62 61 62 62 62 62 62 62 62 62 63 62 61 60 60 60
56 57 57 57 57 58 58 58 58 58 59 58 58 58 57 56 56 56 57 57 58 58 57 57 57 57 56 56 56 55 55 55 56 56 56 55 55 55 56 55 55 54 55 55 54 54 55 55 55 55 54 54 55 55 56 58 59 60 61 62 61 61 61 61 62 61 62 62 62 61 62 61 62 62 62 62 62 63 62 62 62 61 60 60 61
55 56 56 56 57 57 57 57 56 56 56 56 56 56 56 56 56 57 57 58 58 57 57 56 56 56 56 55 55 54 54 54 55 54 54 54 54 54 54 54 53 54 53 53 53 53 54 53 53 54 53 53 53 54 55 56 57 57 58 60 61 61 61 61 61 61 60 61 61 62 61 62 62 62 62 62 62 62 62 62 62 62 61 60 60
55 56 56 57 57 56 56 55 54 54 54 55 55 56 56 56 56 56 57 57 57 56 56 55 55 55 55 54 53 53 54 54 54 53 53 53 53 53 53 52 52 52 51 52 52 52 52 52 52 52 52 52 52 53 53 54 55 56 57 59 61 61 61 61 60 60 60 61 60 60 60 61 62 61 61 62 63 62 62 62 61 62 61 61 60
54 55 55 55 55 54 54 55 54 54 54 54 55 55 55 55 55 56 56 57 56 55 54 54 54 54 54 53 53 52 52 53 52 52 52 52 52 51 51 51 51 50 50 50 51 51 51 51 51 50 50 50 50 51 51 52 54 55 57 59 60 60 61 61 61 61 61 61 61 61 61 61 61 61 61 62 63 62 62 62 61 62 61 61 61
54 54 53 54 53 53 53 54 53 53 53 53 53 54 54 54 55 56 56 56 56 55 55 54 54 53 52 52 52 52 52 52 52 52 51 51 50 50 50 50 49 49 49 49 50 50 50 49 49 49 49 49 49 49 50 51 54 56 58 58 59 59 59 60 60 60 60 60 61 61 61 61 61 61 61 61 62 62 62 62 62 61 62 61 61
53 54 54 53 53 52 52 52 53 53 53 53 54 53 53 54 55 55 55 55 55 54 54 53 53 52 51 51 51 51 51 51 51 51 50 50 49 49 48 48 49 49 49 49 49 48 48 48 48 48 48 48 48 48 49 50 54 54 55 55 55 56 57 58 58 58 58 58 58 58 59 60 61 61 62 62 62 61 61 62 63 62 62 61 60
53 53 52 52 52 52 52 52 52 52 52 53 53 54 53 53 53 54 54 54 54 54 53 53 52 52 51 51 51 51 51 50 50 49 49 49 48 48 47 48 48 48 48 48 48 47 47 47 47 47 47 48 47 47 47 48 51 52 53 53 53 53 54 55 55 55 56 57 57 57 58 58 59 60 60 61 62 61 61 61 61 61 61 61 60
52 52 52 51 51 51 51 51 52 52 52 52 52 52 53 52 53 53 54 53 53 53 52 52 51 51 50 50 50 50 50 49 49 48 48 48 47 47 47 47 47 48 48 47 48 47 47 46 47 47 46 47 47 47 47 47 50 51 51 51 51 51 51 52 52 53 54 55 55 55 56 56 58 54 50 51 51 53 58 60 61 61 61 60 60
51 51 51 51 51 51 51 52 52 52 52 52 52 52 52 52 52 52 52 53 53 52 52 51 50 50 50 50 49 49 49 48 48 47 47 47 47 47 47 46 46 46 46 47 47 47 46 46 46 46 46 46 46 46 46 44 45 49 50 50 50 50 49 50 50 51 52 53 53 53 54 55 55 51 47 44 43 44 47 49 50 53 57 60 60
50 50 50 50 50 51 51 51 52 52 52 52 52 51 51 51 51 52 52 53 52 51 51 51 50 50 50 49 49 48 48 48 47 47 47 46 46 47 46 46 46 46 46 45 45 45 46 46 45 45 45 45 45 45 42 41 41 43 49 49 48 48 48 48 49 49 50 51 52 52 53 54 54 54 50 44 43 42 42 42 43 44 46 49 55
50 50 49 50 50 51 51 52 51 51 51 51 50 51 50 50 51 51 51 51 52 51 51 50 50 49 49 48 48 48 47 47 47 46 46 45 45 45 45 45 45 45 45 45 46 45 45 45 45 45 45 45 45 43 40 41 41 42 45 48 48 47 47 47 48 48 49 50 51 51 52 52 53 52 52 51 48 44 43 42 42 42 41 41 41
50 49 49 50 51 51 52 51 50 50 51 52 51 49 50 50 51 51 51 51 51 50 50 50 49 49 49 48 48 47 47 46 46 45 45 45 44 44 44 44 44 45 45 46 46 46 45 45 45 44 44 44 44 40 40 41 41 41 42 46 47 47 47 46 47 47 48 48 49 50 50 50 50 52 52 51 50 50 46 44 44 44 44 43 40
50 51 51 52 53 51 50 51 50 50 50 50 50 51 50 50 50 50 50 50 50 50 50 49 49 49 48 48 47 47 46 46 45 45 44 44 44 43 44 44 45 46 46 45 46 45 45 45 44 44 43 43 42 40 39 40 41 41 41 44 47 47 46 45 45 46 47 47 47 48 47 47 48 48 49 50 50 49 49 48 47 47 47 45 43
49 49 49 50 51 51 51 50 49 49 50 50 49 49 49 49 49 49 49 49 49 49 49 49 49 48 48 47 47 46 45 45 44 44 44 43 43 43 43 44 44 46 46 46 45 45 44 44 44 44 43 43 41 38 38 39 40 41 41 44 47 47 46 45 45 45 46 46 46 47 47 46 46 46 46 47 49 48 48 48 47 47 46 46 45
50 49 50 51 51 50 50 49 50 49 48 48 48 48 48 48 48 48 48 48 48 48 49 48 48 47 47 47 46 45 45 44 44 43 43 43 43 43 43 43 44 44 44 44 44 44 43 44 44 44 44 42 41 38 38 38 39 40 42 46 46 46 45 45 44 44 44 45 45 46 46 46 45 45 43 41 45 48 48 47 47 47 47 47 47
49 49 50 51 51 50 50 49 49 48 48 48 48 48 48 47 47 47 47 47 48 47 48 48 47 47 46 46 46 45 44 43 43 43 42 43 43 43 43 43 43 43 43 42 44 43 42 42 42 43 43 43 42 39 37 38 39 39 43 46 46 45 44 44 44 44 43 43 44 44 44 44 44 44 41 40 41 45 46 46 46 46 46 46 47
49 51 50 50 50 49 49 49 48 48 48 48 48 48 47 47 47 46 46 46 46 46 47 47 46 46 46 45 45 44 44 43 43 43 43 43 43 42 42 43 42 42 42 42 42 41 42 42 42 41 42 42 41 39 37 38 38 38 42 45 44 44 44 43 43 43 43 42 42 43 45 43 43 42 39 39 41 45 46 45 45 45 45 45 46
50 49 49 49 49 48 48 47 47 46 46 47 47 48 47 46 46 46 46 46 46 46 46 46 46 45 45 45 44 44 43 42 42 42 42 42 42 42 42 42 42 42 42 41 41 40 41 41 41 42 41 41 40 39 37 37 37 38 43 45 43 43 43 43 42 42 42 42 41 40 41 40 41 40 38 39 40 44 45 45 45 45 44 43 44
49 49 49 48 48 47 47 47 46 46 46 46 47 46 46 46 45 45 45 45 45 46 45 45 45 45 45 44 44 43 43 42 41 41 42 42 41 41 42 41 41 40 40 40 40 40 40 40 41 41 41 41 40 39 38 36 37 37 39 43 43 42 41 41 41 40 40 40 40 39 38 36 36 37 37 37 38 40 44 45 45 44 43 43 45
47 47 46 47 46 46 46 46 45 46 46 47 46 46 45 45 44 44 44 45 45 45 44 44 43 43 43 43 42 42 43 42 42 41 41 41 41 41 42 41 41 41 40 40 40 40 40 40 40 40 40 40 40 39 38 36 36 37 37 39 42 42 41 40 39 38 38 38 38 37 37 36 35 36 36 37 38 39 40 43 44 43 44 45 43
46 46 45 45 44 44 44 44 45 45 46 47 47 45 45 44 43 43 44 44 44 44 44 43 42 42 42 42 42 42 43 43 42 42 42 41 41 42 42 41 40 40 40 40 40 39 39 39 39 39 40 39 39 39 39 36 36 36 36 37 39 40 40 39 38 37 37 37 37 36 36 35 35 35 35 36 37 37 39 43 43 38 39 40 45
45 44 43 43 43 43 43 43 43 44 45 46 46 45 43 43 43 43 43 44 43 43 43 42 42 42 42 41 42 42 42 42 43 43 42 42 41 41 41 41 40 40 39 39 39 39 39 38 38 37 38 39 38 37 37 37 36 35 35 35 35 37 36 39 38 37 37 36 37 37 36 36 34 34 34 34 35 36 38 39 37 38 39 39 41
44 44 43 42 42 42 42 42 43 43 44 45 44 43 42 42 42 42 43 43 42 42 42 41 41 41 41 40 40 41 42 42 42 42 42 41 41 40 39 40 39 38 37 37 37 38 37 37 36 36 37 37 38 37 37 36 36 35 35 35 35 35 36 38 38 36 36 35 35 36 35 34 34 34 34 34 34 34 36 35 36 37 38 40 41
43 43 42 42 41 41 41 41 41 42 43 43 43 42 41 41 41 41 41 41 41 41 41 40 40 40 40 39 40 41 41 41 42 41 40 39 40 39 38 38 38 37 37 36 36 36 36 36 36 36 36 37 37 37 37 36 36 35 35 34 34 34 34 35 36 36 36 35 34 34 34 33 34 34 34 34 34 34 34 34 35 36 39 39 39
43 42 42 42 41 41 41 40 40 41 42 43 42 41 41 40 41 41 41 41 40 40 39 39 39 39 38 38 39 39 39 39 40 39 39 39 39 37 37 38 36 36 36 36 35 34 34 35 35 35 35 36 37 36 37 37 36 36 35 35 34 35 35 35 35 35 34 34 34 34 34 33 33 34 36 36 35 36 34 34 34 36 38 37 37
44 44 42 41 40 40 40 40 39 40 41 41 41 40 40 39 40 40 40 40 40 40 39 39 39 39 39 38 38 38 38 38 38 37 38 38 37 37 37 36 36 36 36 35 35 34 34 35 35 35 35 35 36 36 36 37 37 35 35 36 36 36 36 35 36 36 36 35 34 35 34 34 33 34 34 34 34 34 35 35 34 34 36 36 37
44 44 42 40 40 39 39 39 40 40 39 39 38 38 38 39 39 40 40 40 40 39 39 39 39 39 38 37 37 34 36 37 38 38 36 37 37 38 38 39 38 37 36 36 36 36 36 36 34 34 34 33 34 34 36 38 37 36 35 34 36 36 36 35 35 36 37 36 36 35 35 35 35 35 34 34 34 34 34 34 34 33 34 35 36
43 42 41 40 39 39 39 39 38 38 38 38 38 38 38 39 39 39 40 39 39 39 39 39 38 38 38 37 38 37 37 37 37 38 38 39 39 38 38 39 40 39 39 37 36 37 37 38 38 36 34 34 34 35 36 34 36 34 35 37 36 36 35 34 35 34 37 37 36 35 35 34 34 33 33 33 32 32 32 33 36 35 34 35 36
42 42 42 40 39 39 38 38 37 38 37 37 38 38 39 38 39 39 40 39 39 39 39 38 38 37 37 37 37 37 37 37 37 37 37 37 34 35 37 38 38 36 35 35 36 38 38 37 37 38 38 36 36 36 34 34 34 34 34 34 34 34 34 35 34 34 35 34 34 34 34 33 34 32 32 32 33 32 33 32 33 33 33 33 34
42 40 40 40 39 39 38 37 37 37 37 37 37 38 38 38 39 39 39 39 39 38 38 37 37 37 37 37 38 37 37 37 37 37 37 36 36 35 34 35 35 35 35 35 35 35 35 35 37 36 36 35 34 34 34 34 34 34 34 34 34 34 34 33 33 33 33 32 31 31 33 33 33 33 34 34 34 33 33 33 32 33 34 33 32